QPF
0.02 0.03 0.04 0.05 0.05 0.06 0.08 0.09 0.12 0.13 0.12 0.12 0.10 0.10 0.12 0.11 0.08 0.06 0.08 0.08 0.06 0.05 0.07 0.07 0.07 0.06 0.07 0.08 0.07 0.08 0.06 0.05 0.05 0.05 0.05 0.05 0.06 0.07 0.05 0.06 0.04 0.03 0.02
0.01 0.02 0.03 0.05 0.06 0.06 0.07 0.07 0.08 0.10 0.11 0.13 0.13 0.11 0.13 0.12 0.10 0.07 0.07 0.08 0.04 0.03 0.04 0.05 0.06 0.08 0.07 0.08 0.09 0.10 0.09 0.06 0.04 0.05 0.04 0.05 0.05 0.07 0.04 0.04 0.04 0.04 0.04
0.01 0.02 0.04 0.06 0.06 0.06 0.06 0.08 0.08 0.10 0.10 0.11 0.13 0.14 0.13 0.14 0.15 0.09 0.08 0.11 0.09 0.04 0.02 0.03 0.05 0.08 0.08 0.07 0.08 0.08 0.08 0.06 0.04 0.04 0.04 0.06 0.05 0.05 0.04 0.04 0.04 0.05 0.05
0.01 0.03 0.06 0.06 0.06 0.06 0.05 0.06 0.08 0.10 0.12 0.12 0.13 0.13 0.13 0.14 0.15 0.08 0.07 0.08 0.11 0.09 0.05 0.02 0.03 0.05 0.08 0.06 0.06 0.06 0.07 0.06 0.04 0.03 0.04 0.05 0.04 0.03 0.03 0.03 0.04 0.04 0.05
0.02 0.03 0.06 0.07 0.06 0.07 0.06 0.05 0.08 0.09 0.12 0.14 0.12 0.15 0.14 0.13 0.13 0.08 0.08 0.10 0.12 0.14 0.14 0.06 0.02 0.02 0.04 0.06 0.06 0.06 0.07 0.06 0.05 0.04 0.04 0.04 0.03 0.02 0.03 0.03 0.03 0.04 0.04
0.02 0.03 0.05 0.07 0.07 0.10 0.09 0.07 0.09 0.09 0.10 0.11 0.10 0.14 0.14 0.11 0.09 0.10 0.13 0.15 0.12 0.12 0.16 0.12 0.07 0.02 0.02 0.03 0.04 0.05 0.07 0.07 0.06 0.05 0.05 0.05 0.03 0.02 0.02 0.02 0.02 0.03 0.03
0.03 0.03 0.04 0.06 0.06 0.07 0.07 0.06 0.08 0.08 0.08 0.09 0.10 0.13 0.14 0.10 0.08 0.09 0.12 0.13 0.11 0.10 0.15 0.17 0.12 0.09 0.04 0.02 0.02 0.03 0.05 0.08 0.08 0.06 0.06 0.05 0.04 0.02 0.02 0.02 0.02 0.03 0.03
0.03 0.03 0.03 0.04 0.04 0.05 0.05 0.05 0.06 0.07 0.07 0.07 0.08 0.12 0.14 0.15 0.12 0.07 0.08 0.09 0.10 0.11 0.14 0.12 0.12 0.13 0.11 0.08 0.04 0.02 0.02 0.05 0.08 0.07 0.08 0.07 0.06 0.04 0.02 0.02 0.02 0.03 0.03
0.02 0.03 0.02 0.03 0.04 0.04 0.05 0.05 0.06 0.06 0.06 0.06 0.07 0.10 0.13 0.16 0.17 0.11 0.07 0.05 0.09 0.11 0.14 0.14 0.11 0.13 0.14 0.14 0.13 0.05 0.02 0.02 0.05 0.07 0.08 0.09 0.08 0.06 0.04 0.02 0.02 0.03 0.03
0.01 0.01 0.02 0.03 0.03 0.04 0.04 0.03 0.04 0.06 0.05 0.07 0.07 0.08 0.09 0.10 0.13 0.14 0.11 0.07 0.09 0.09 0.11 0.13 0.10 0.11 0.12 0.15 0.17 0.12 0.05 0.02 0.02 0.04 0.07 0.08 0.08 0.06 0.05 0.03 0.03 0.03 0.03
0.00 0.00 0.01 0.02 0.03 0.04 0.04 0.02 0.03 0.04 0.05 0.06 0.07 0.07 0.06 0.05 0.06 0.09 0.11 0.10 0.09 0.09 0.08 0.14 0.13 0.09 0.09 0.11 0.16 0.14 0.07 0.02 0.01 0.03 0.05 0.09 0.08 0.06 0.06 0.05 0.04 0.03 0.03
0.00 0.00 0.01 0.02 0.03 0.04 0.03 0.02 0.02 0.02 0.03 0.04 0.05 0.06 0.05 0.04 0.05 0.07 0.08 0.09 0.09 0.09 0.08 0.10 0.12 0.10 0.09 0.11 0.15 0.16 0.09 0.04 0.01 0.01 0.02 0.05 0.08 0.09 0.08 0.08 0.07 0.05 0.04
0.00 0.00 0.00 0.01 0.02 0.02 0.02 0.02 0.02 0.01 0.02 0.03 0.03 0.03 0.03 0.03 0.03 0.04 0.05 0.06 0.06 0.07 0.06 0.06 0.08 0.09 0.08 0.09 0.15 0.14 0.10 0.05 0.02 0.01 0.01 0.02 0.04 0.07 0.09 0.10 0.11 0.09 0.07
0.00 0.00 0.00 0.00 0.00 0.01 0.01 0.02 0.02 0.02 0.01 0.02 0.02 0.02 0.02 0.02 0.02 0.03 0.04 0.05 0.06 0.06 0.05 0.04 0.05 0.07 0.07 0.08 0.09 0.08 0.04 0.03 0.01 0.01 0.01 0.01 0.01 0.03 0.05 0.07 0.09 0.12 0.13
0.00 0.00 0.00 0.00 0.00 0.00 0.01 0.02 0.03 0.02 0.02 0.02 0.02 0.02 0.02 0.03 0.02 0.02 0.03 0.05 0.06 0.06 0.06 0.05 0.05 0.05 0.05 0.06 0.07 0.05 0.04 0.04 0.02 0.01 0.01 0.01 0.01 0.01 0.02 0.03 0.04 0.06 0.07
0.00 0.00 0.00 0.00 0.01 0.00 0.00 0.00 0.01 0.02 0.02 0.02 0.02 0.01 0.02 0.02 0.02 0.02 0.02 0.03 0.04 0.05 0.05 0.04 0.04 0.03 0.03 0.03 0.04 0.03 0.06 0.06 0.04 0.01 0.01 0.01 0.02 0.02 0.01 0.02 0.02 0.02 0.02
0.00 0.00 0.00 0.00 0.01 0.01 0.00 0.00 0.01 0.01 0.02 0.03 0.01 0.01 0.02 0.02 0.03 0.03 0.03 0.03 0.04 0.04 0.03 0.04 0.04 0.03 0.02 0.04 0.04 0.03 0.05 0.05 0.04 0.02 0.01 0.01 0.02 0.02 0.02 0.02 0.03 0.02 0.01
0.00 0.00 0.00 0.00 0.00 0.01 0.01 0.01 0.01 0.01 0.01 0.02 0.02 0.03 0.02 0.02 0.03 0.04 0.03 0.03 0.04 0.04 0.04 0.04 0.05 0.04 0.03 0.04 0.05 0.05 0.05 0.03 0.03 0.03 0.02 0.01 0.01 0.01 0.02 0.02 0.03 0.03 0.03
0.00 0.00 0.00 0.00 0.00 0.00 0.00 0.00 0.01 0.01 0.01 0.01 0.02 0.03 0.03 0.03 0.03 0.03 0.03 0.03 0.03 0.03 0.04 0.04 0.04 0.04 0.05 0.04 0.04 0.04 0.03 0.03 0.01 0.01 0.01 0.01 0.01 0.01 0.01 0.02 0.02 0.02 0.02
0.00 0.00 0.00 0.00 0.00 0.00 0.00 0.00 0.01 0.01 0.01 0.01 0.02 0.03 0.04 0.05 0.04 0.02 0.02 0.02 0.02 0.02 0.02 0.03 0.03 0.03 0.04 0.04 0.04 0.04 0.03 0.02 0.02 0.01 0.01 0.01 0.01 0.01 0.01 0.01 0.01 0.01 0.01
0.00 0.00 0.00 0.00 0.00 0.00 0.00 0.00 0.00 0.01 0.01 0.01 0.01 0.02 0.01 0.02 0.02 0.02 0.01 0.02 0.02 0.03 0.03 0.03 0.02 0.02 0.03 0.03 0.03 0.03 0.03 0.03 0.02 0.03 0.02 0.01 0.01 0.01 0.01 0.01 0.01 0.01 0.01
0.00 0.00 0.00 0.00 0.00 0.00 0.00 0.00 0.00 0.00 0.01 0.01 0.01 0.02 0.01 0.01 0.01 0.01 0.01 0.02 0.02 0.02 0.03 0.03 0.03 0.03 0.03 0.04 0.04 0.03 0.03 0.02 0.02 0.03 0.03 0.02 0.02 0.02 0.03 0.02 0.01 0.01 0.01
0.00 0.00 0.00 0.00 0.00 0.00 0.00 0.00 0.00 0.00 0.01 0.01 0.01 0.01 0.01 0.00 0.00 0.00 0.01 0.02 0.02 0.01 0.01 0.02 0.04 0.04 0.04 0.05 0.04 0.03 0.03 0.02 0.02 0.03 0.03 0.02 0.03 0.02 0.03 0.03 0.03 0.03 0.02
0.00 0.00 0.00 0.00 0.00 0.00 0.00 0.00 0.00 0.00 0.00 0.00 0.01 0.00 0.00 0.00 0.00 0.00 0.01 0.02 0.02 0.01 0.01 0.02 0.03 0.04 0.04 0.04 0.03 0.03 0.03 0.03 0.03 0.03 0.03 0.03 0.03 0.03 0.02 0.02 0.03 0.04 0.03
0.00 0.00 0.00 0.00 0.00 0.00 0.00 0.00 0.00 0.00 0.00 0.00 0.00 0.00 0.00 0.00 0.00 0.00 0.00 0.01 0.01 0.00 0.00 0.01 0.01 0.01 0.02 0.01 0.01 0.03 0.04 0.04 0.03 0.03 0.04 0.03 0.03 0.04 0.04 0.03 0.03 0.03 0.03
0.00 0.00 0.00 0.00 0.00 0.00 0.00 0.00 0.00 0.00 0.00 0.00 0.00 0.00 0.00 0.00 0.00 0.00 0.01 0.01 0.00 0.00 0.01 0.01 0.02 0.02 0.02 0.01 0.01 0.02 0.04 0.05 0.05 0.05 0.05 0.05 0.03 0.05 0.04 0.03 0.04 0.04 0.03
MSLP
1011.67 1011.49 1011.27 1011.06 1010.92 1010.88 1010.95 1011.12 1011.36 1011.61 1011.82 1011.96 1012.01 1011.97 1011.89 1011.80 1011.72 1011.71 1011.75 1011.85 1011.99 1012.14 1012.29 1012.42 1012.53 1012.62 1012.71 1012.80 1012.92 1013.06 1013.21 1013.37 1013.54 1013.71 1013.89 1014.07 1014.28 1014.52 1014.78 1015.07 1015.38 1015.69 1015.99
1011.77 1011.59 1011.38 1011.19 1011.07 1011.05 1011.13 1011.29 1011.51 1011.74 1011.93 1012.05 1012.09 1012.06 1011.98 1011.88 1011.80 1011.76 1011.77 1011.84 1011.94 1012.07 1012.21 1012.35 1012.48 1012.60 1012.72 1012.85 1012.98 1013.13 1013.28 1013.43 1013.59 1013.76 1013.94 1014.14 1014.36 1014.61 1014.88 1015.17 1015.47 1015.77 1016.06
1011.90 1011.74 1011.56 1011.41 1011.31 1011.30 1011.37 1011.51 1011.68 1011.86 1012.01 1012.11 1012.13 1012.09 1012.01 1011.92 1011.82 1011.76 1011.74 1011.77 1011.83 1011.93 1012.05 1012.18 1012.33 1012.48 1012.64 1012.80 1012.97 1013.13 1013.29 1013.45 1013.62 1013.79 1013.97 1014.18 1014.42 1014.69 1014.97 1015.27 1015.57 1015.86 1016.15
1012.04 1011.92 1011.79 1011.68 1011.61 1011.60 1011.65 1011.74 1011.85 1011.96 1012.05 1012.09 1012.09 1012.05 1011.97 1011.88 1011.78 1011.71 1011.66 1011.64 1011.66 1011.72 1011.82 1011.94 1012.10 1012.28 1012.47 1012.67 1012.87 1013.06 1013.24 1013.41 1013.58 1013.76 1013.96 1014.19 1014.45 1014.73 1015.04 1015.35 1015.66 1015.96 1016.24
1012.19 1012.11 1012.04 1011.98 1011.94 1011.93 1011.94 1011.96 1012.00 1012.02 1012.03 1012.02 1011.99 1011.94 1011.87 1011.79 1011.70 1011.62 1011.55 1011.50 1011.48 1011.50 1011.56 1011.67 1011.82 1012.01 1012.24 1012.47 1012.70 1012.92 1013.13 1013.32 1013.50 1013.69 1013.90 1014.14 1014.42 1014.72 1015.05 1015.38 1015.71 1016.02 1016.32
1012.35 1012.32 1012.30 1012.29 1012.28 1012.26 1012.23 1012.18 1012.13 1012.06 1011.99 1011.93 1011.86 1011.81 1011.75 1011.70 1011.63 1011.56 1011.48 1011.40 1011.34 1011.31 1011.33 1011.41 1011.55 1011.75 1011.99 1012.25 1012.51 1012.75 1012.98 1013.18 1013.38 1013.57 1013.79 1014.05 1014.33 1014.65 1014.99 1015.35 1015.69 1016.02 1016.33
1012.52 1012.54 1012.57 1012.60 1012.61 1012.58 1012.51 1012.40 1012.27 1012.12 1011.98 1011.87 1011.79 1011.74 1011.71 1011.68 1011.64 1011.59 1011.50 1011.40 1011.30 1011.23 1011.20 1011.24 1011.36 1011.54 1011.78 1012.05 1012.32 1012.59 1012.83 1013.04 1013.24 1013.44 1013.66 1013.91 1014.20 1014.52 1014.87 1015.23 1015.59 1015.93 1016.26
1012.69 1012.74 1012.82 1012.88 1012.91 1012.88 1012.79 1012.64 1012.44 1012.24 1012.05 1011.91 1011.83 1011.80 1011.80 1011.81 1011.80 1011.76 1011.68 1011.55 1011.42 1011.29 1011.22 1011.21 1011.28 1011.43 1011.65 1011.92 1012.19 1012.46 1012.70 1012.91 1013.11 1013.30 1013.51 1013.74 1014.02 1014.33 1014.67 1015.03 1015.39 1015.74 1016.07
1012.85 1012.93 1013.03 1013.13 1013.18 1013.15 1013.05 1012.88 1012.66 1012.43 1012.23 1012.09 1012.03 1012.02 1012.06 1012.11 1012.14 1012.11 1012.02 1011.88 1011.70 1011.52 1011.39 1011.32 1011.34 1011.44 1011.63 1011.86 1012.12 1012.38 1012.61 1012.81 1012.99 1013.17 1013.35 1013.57 1013.81 1014.10 1014.41 1014.76 1015.10 1015.45 1015.79
1012.96 1013.05 1013.18 1013.30 1013.37 1013.37 1013.28 1013.11 1012.90 1012.69 1012.51 1012.40 1012.37 1012.41 1012.49 1012.57 1012.62 1012.61 1012.51 1012.34 1012.12 1011.89 1011.69 1011.55 1011.51 1011.56 1011.69 1011.89 1012.11 1012.33 1012.54 1012.72 1012.89 1013.04 1013.19 1013.37 1013.59 1013.84 1014.12 1014.43 1014.76 1015.09 1015.42
1012.99 1013.10 1013.24 1013.38 1013.48 1013.50 1013.44 1013.31 1013.15 1012.98 1012.85 1012.79 1012.81 1012.89 1013.01 1013.12 1013.19 1013.17 1013.06 1012.87 1012.61 1012.33 1012.07 1011.87 1011.76 1011.75 1011.82 1011.95 1012.12 1012.31 1012.48 1012.63 1012.77 1012.89 1013.02 1013.17 1013.35 1013.56 1013.81 1014.08 1014.38 1014.69 1015.01
1012.93 1013.04 1013.19 1013.35 1013.47 1013.53 1013.52 1013.44 1013.33 1013.23 1013.16 1013.17 1013.24 1013.37 1013.52 1013.66 1013.73 1013.72 1013.60 1013.38 1013.09 1012.77 1012.47 1012.21 1012.04 1011.96 1011.96 1012.03 1012.14 1012.27 1012.40 1012.51 1012.61 1012.71 1012.82 1012.94 1013.09 1013.27 1013.49 1013.73 1013.99 1014.28 1014.58
1012.77 1012.89 1013.06 1013.23 1013.37 1013.46 1013.49 1013.47 1013.43 1013.39 1013.39 1013.45 1013.58 1013.74 1013.92 1014.07 1014.15 1014.14 1014.02 1013.79 1013.50 1013.16 1012.83 1012.54 1012.32 1012.18 1012.11 1012.11 1012.15 1012.22 1012.29 1012.36 1012.43 1012.50 1012.58 1012.69 1012.82 1012.98 1013.17 1013.38 1013.62 1013.88 1014.16
1012.55 1012.68 1012.85 1013.03 1013.19 1013.30 1013.37 1013.40 1013.41 1013.43 1013.49 1013.59 1013.75 1013.94 1014.13 1014.29 1014.38 1014.37 1014.26 1014.06 1013.77 1013.45 1013.12 1012.82 1012.57 1012.38 1012.26 1012.19 1012.16 1012.16 1012.17 1012.19 1012.22 1012.26 1012.33 1012.42 1012.54 1012.68 1012.85 1013.05 1013.26 1013.50 1013.75
1012.30 1012.45 1012.63 1012.81 1012.97 1013.10 1013.19 1013.25 1013.30 1013.36 1013.44 1013.57 1013.74 1013.94 1014.13 1014.29 1014.39 1014.41 1014.33 1014.16 1013.92 1013.64 1013.34 1013.05 1012.80 1012.59 1012.42 1012.29 1012.19 1012.12 1012.06 1012.03 1012.01 1012.03 1012.07 1012.14 1012.25 1012.38 1012.54 1012.72 1012.91 1013.12 1013.36
1012.08 1012.25 1012.43 1012.61 1012.77 1012.90 1013.00 1013.07 1013.13 1013.20 1013.29 1013.42 1013.59 1013.77 1013.95 1014.11 1014.22 1014.26 1014.23 1014.12 1013.95 1013.74 1013.50 1013.26 1013.03 1012.81 1012.61 1012.43 1012.27 1012.13 1012.01 1011.91 1011.85 1011.82 1011.83 1011.88 1011.96 1012.08 1012.21 1012.37 1012.54 1012.73 1012.94
1011.92 1012.11 1012.29 1012.46 1012.62 1012.74 1012.83 1012.90 1012.95 1013.01 1013.09 1013.20 1013.34 1013.50 1013.66 1013.81 1013.93 1014.01 1014.03 1014.00 1013.91 1013.79 1013.63 1013.45 1013.26 1013.05 1012.84 1012.63 1012.42 1012.22 1012.03 1011.87 1011.75 1011.67 1011.63 1011.64 1011.69 1011.77 1011.87 1012.00 1012.14 1012.30 1012.48
1011.81 1012.01 1012.19 1012.37 1012.51 1012.62 1012.70 1012.76 1012.80 1012.85 1012.90 1012.98 1013.09 1013.21 1013.35 1013.49 1013.62 1013.72 1013.80 1013.84 1013.85 1013.81 1013.74 1013.63 1013.49 1013.31 1013.10 1012.87 1012.62 1012.37 1012.13 1011.91 1011.72 1011.58 1011.48 1011.43 1011.42 1011.45 1011.50 1011.58 1011.68 1011.80 1011.95
1011.71 1011.91 1012.10 1012.28 1012.42 1012.53 1012.61 1012.66 1012.69 1012.72 1012.75 1012.80 1012.87 1012.96 1013.07 1013.20 1013.33 1013.46 1013.59 1013.69 1013.77 1013.81 1013.82 1013.78 1013.68 1013.54 1013.34 1013.11 1012.84 1012.55 1012.27 1011.99 1011.75 1011.54 1011.37 1011.25 1011.16 1011.12 1011.10 1011.11 1011.16 1011.23 1011.35
1011.57 1011.77 1011.96 1012.14 1012.29 1012.41 1012.49 1012.55 1012.59 1012.61 1012.63 1012.66 1012.70 1012.77 1012.86 1012.97 1013.10 1013.25 1013.40 1013.54 1013.67 1013.77 1013.83 1013.84 1013.79 1013.68 1013.50 1013.27 1013.00 1012.70 1012.39 1012.08 1011.78 1011.51 1011.27 1011.07 1010.90 1010.76 1010.65 1010.59 1010.57 1010.59 1010.67
1011.31 1011.51 1011.71 1011.89 1012.06 1012.19 1012.30 1012.38 1012.43 1012.47 1012.49 1012.52 1012.55 1012.61 1012.68 1012.78 1012.91 1013.06 1013.21 1013.38 1013.53 1013.65 1013.74 1013.78 1013.75 1013.66 1013.51 1013.30 1013.04 1012.75 1012.43 1012.10 1011.77 1011.45 1011.15 1010.86 1010.60 1010.37 1010.17 1010.02 1009.92 1009.90 1009.94
1010.92 1011.11 1011.31 1011.50 1011.69 1011.85 1011.98 1012.09 1012.18 1012.24 1012.28 1012.32 1012.37 1012.42 1012.50 1012.59 1012.71 1012.85 1013.00 1013.16 1013.30 1013.43 1013.52 1013.56 1013.54 1013.47 1013.33 1013.15 1012.91 1012.64 1012.33 1012.01 1011.67 1011.32 1010.97 1010.61 1010.26 1009.94 1009.65 1009.41 1009.25 1009.17 1009.18
1010.41 1010.59 1010.78 1010.98 1011.17 1011.36 1011.52 1011.66 1011.78 1011.88 1011.96 1012.02 1012.09 1012.16 1012.25 1012.35 1012.47 1012.60 1012.73 1012.87 1012.99 1013.09 1013.15 1013.18 1013.16 1013.08 1012.96 1012.80 1012.59 1012.35 1012.08 1011.78 1011.44 1011.08 1010.70 1010.30 1009.88 1009.48 1009.11 1008.80 1008.57 1008.43 1008.41
1009.84 1010.01 1010.19 1010.38 1010.57 1010.76 1010.94 1011.10 1011.25 1011.37 1011.49 1011.59 1011.69 1011.79 1011.90 1012.02 1012.14 1012.27 1012.39 1012.50 1012.60 1012.66 1012.69 1012.69 1012.64 1012.56 1012.44 1012.30 1012.12 1011.92 1011.68 1011.41 1011.10 1010.75 1010.35 1009.92 1009.47 1009.01 1008.58 1008.20 1007.90 1007.72 1007.66
1009.30 1009.45 1009.61 1009.79 1009.97 1010.15 1010.32 1010.48 1010.64 1010.78 1010.91 1011.05 1011.18 1011.31 1011.45 1011.60 1011.74 1011.88 1012.00 1012.10 1012.17 1012.20 1012.20 1012.16 1012.09 1011.99 1011.87 1011.73 1011.57 1011.40 1011.19 1010.96 1010.67 1010.34 1009.95 1009.51 1009.04 1008.54 1008.07 1007.64 1007.30 1007.07 1006.96
1008.87 1009.01 1009.16 1009.31 1009.46 1009.61 1009.75 1009.89 1010.03 1010.17 1010.31 1010.45 1010.61 1010.78 1010.96 1011.14 1011.31 1011.47 1011.61 1011.71 1011.78 1011.79 1011.77 1011.70 1011.61 1011.48 1011.35 1011.20 1011.05 1010.89 1010.71 1010.49 1010.23 1009.92 1009.55 1009.11 1008.63 1008.13 1007.63 1007.17 1006.78 1006.50 1006.35
Thickness
5708 5706 5706 5706 5706 5706 5707 5708 5711 5714 5717 5721 5725 5729 5732 5735 5738 5740 5742 5743 5745 5746 5747 5748 5748 5748 5749 5750 5751 5752 5752 5753 5754 5754 5755 5755 5755 5755 5755 5755 5755 5754 5754
5705 5703 5701 5701 5701 5702 5703 5704 5707 5709 5712 5717 5720 5725 5728 5732 5735 5737 5740 5742 5744 5745 5746 5747 5748 5748 5748 5748 5749 5750 5751 5752 5752 5753 5753 5754 5754 5754 5754 5754 5754 5753 5753
5702 5699 5697 5696 5696 5697 5698 5700 5702 5705 5708 5712 5716 5722 5725 5728 5731 5735 5738 5741 5743 5744 5745 5746 5747 5747 5747 5748 5748 5749 5750 5750 5751 5752 5752 5752 5753 5753 5753 5752 5752 5752 5752
5699 5696 5693 5692 5692 5693 5694 5695 5696 5698 5701 5705 5710 5716 5721 5724 5729 5733 5736 5740 5742 5744 5745 5745 5746 5747 5747 5747 5748 5748 5749 5750 5750 5750 5751 5751 5751 5751 5751 5751 5751 5751 5751
5694 5693 5690 5689 5689 5689 5689 5691 5692 5694 5696 5700 5705 5711 5716 5720 5725 5729 5734 5738 5741 5743 5744 5745 5745 5746 5747 5747 5747 5748 5748 5749 5749 5749 5750 5750 5750 5750 5750 5750 5750 5749 5749
5691 5690 5688 5687 5685 5684 5684 5686 5687 5691 5693 5697 5702 5708 5712 5717 5721 5725 5730 5734 5738 5741 5743 5743 5743 5744 5745 5746 5747 5747 5748 5748 5748 5749 5749 5749 5749 5748 5748 5748 5748 5748 5748
5689 5688 5685 5684 5683 5681 5681 5683 5684 5686 5689 5694 5696 5699 5707 5714 5718 5722 5726 5730 5734 5738 5740 5740 5742 5743 5744 5745 5746 5747 5747 5747 5748 5748 5748 5748 5748 5747 5747 5747 5747 5747 5747
5687 5686 5683 5682 5681 5680 5680 5681 5682 5682 5686 5691 5691 5691 5693 5700 5709 5718 5722 5725 5730 5734 5737 5739 5741 5742 5743 5744 5745 5746 5746 5746 5746 5747 5747 5747 5747 5746 5746 5745 5746 5746 5746
5687 5684 5683 5681 5681 5680 5678 5679 5680 5681 5681 5686 5691 5688 5686 5687 5697 5709 5717 5722 5725 5729 5732 5736 5738 5739 5740 5742 5744 5744 5745 5745 5745 5746 5746 5746 5746 5745 5745 5745 5745 5745 5745
5689 5685 5682 5681 5680 5679 5678 5679 5680 5681 5681 5681 5686 5690 5692 5693 5691 5695 5706 5715 5720 5723 5727 5732 5735 5736 5738 5740 5741 5742 5742 5742 5743 5743 5744 5745 5745 5744 5744 5744 5744 5744 5744
5690 5687 5684 5682 5681 5680 5679 5679 5680 5681 5681 5680 5682 5685 5688 5691 5694 5692 5693 5702 5710 5717 5722 5726 5729 5732 5734 5736 5737 5738 5738 5739 5739 5740 5741 5742 5743 5743 5743 5743 5743 5743 5743
5691 5688 5686 5684 5682 5681 5680 5680 5680 5681 5681 5681 5682 5683 5684 5684 5686 5689 5690 5694 5700 5708 5716 5720 5723 5727 5729 5731 5733 5733 5733 5734 5735 5736 5738 5739 5740 5741 5741 5741 5741 5742 5742
5690 5688 5687 5684 5683 5682 5681 5681 5681 5681 5681 5681 5681 5681 5683 5685 5688 5688 5688 5690 5694 5701 5708 5713 5718 5721 5723 5724 5726 5726 5727 5728 5730 5732 5734 5735 5737 5738 5739 5739 5740 5740 5741
5692 5690 5688 5685 5684 5683 5682 5682 5681 5681 5682 5681 5681 5681 5681 5684 5686 5687 5686 5686 5686 5691 5698 5704 5711 5714 5716 5718 5719 5720 5721 5723 5725 5727 5729 5731 5733 5734 5736 5736 5737 5738 5739
5696 5692 5690 5687 5685 5684 5682 5681 5679 5679 5679 5679 5679 5679 5679 5681 5683 5685 5686 5685 5682 5680 5685 5695 5700 5706 5710 5711 5712 5714 5716 5718 5720 5722 5724 5726 5728 5730 5731 5733 5734 5735 5735
5696 5693 5691 5689 5687 5685 5683 5681 5680 5679 5678 5678 5678 5677 5677 5678 5679 5680 5681 5682 5682 5679 5678 5687 5693 5699 5702 5705 5706 5708 5710 5712 5714 5716 5718 5720 5723 5725 5727 5728 5730 5731 5732
5698 5695 5692 5690 5688 5686 5684 5681 5679 5678 5677 5677 5678 5677 5676 5677 5676 5676 5677 5678 5678 5678 5675 5680 5687 5692 5695 5696 5698 5701 5703 5705 5708 5710 5712 5715 5717 5719 5721 5723 5725 5726 5728
5700 5697 5693 5690 5688 5686 5684 5681 5679 5678 5677 5676 5676 5676 5675 5675 5674 5674 5674 5674 5674 5676 5674 5673 5678 5682 5686 5689 5691 5693 5697 5700 5702 5705 5707 5709 5711 5713 5715 5717 5719 5721 5722
5701 5698 5695 5691 5689 5686 5684 5682 5680 5679 5678 5677 5676 5674 5674 5673 5671 5672 5672 5671 5671 5673 5673 5671 5672 5676 5679 5683 5684 5686 5690 5693 5696 5698 5700 5702 5705 5707 5709 5711 5713 5715 5717
5701 5698 5696 5693 5690 5687 5684 5682 5680 5679 5678 5677 5677 5675 5673 5671 5669 5669 5669 5668 5669 5668 5668 5668 5668 5669 5672 5676 5677 5677 5678 5683 5686 5691 5693 5695 5698 5700 5703 5705 5707 5709 5710
5703 5699 5696 5693 5691 5688 5684 5681 5678 5678 5676 5676 5676 5675 5673 5671 5669 5667 5666 5664 5664 5663 5663 5663 5663 5664 5665 5667 5668 5671 5671 5674 5678 5683 5684 5688 5691 5693 5696 5698 5700 5702 5704
5703 5700 5696 5693 5690 5688 5684 5681 5678 5675 5675 5674 5674 5674 5672 5670 5668 5666 5665 5664 5663 5661 5659 5658 5658 5658 5660 5662 5664 5665 5665 5665 5666 5674 5675 5678 5683 5685 5689 5692 5694 5696 5697
5702 5699 5696 5693 5690 5687 5685 5682 5679 5675 5673 5673 5673 5672 5672 5671 5667 5665 5664 5663 5662 5661 5659 5657 5655 5655 5657 5658 5659 5659 5659 5658 5660 5665 5667 5669 5675 5677 5682 5686 5688 5690 5691
5702 5699 5696 5694 5691 5688 5685 5682 5679 5675 5673 5673 5673 5672 5670 5668 5666 5663 5661 5660 5659 5660 5659 5657 5656 5655 5656 5656 5655 5655 5654 5656 5658 5662 5664 5661 5667 5670 5676 5680 5682 5683 5685
5703 5701 5698 5695 5691 5689 5686 5683 5679 5675 5673 5673 5673 5672 5670 5666 5664 5662 5659 5657 5657 5657 5658 5657 5657 5656 5655 5654 5653 5650 5649 5649 5650 5654 5659 5658 5661 5664 5668 5671 5675 5676 5677
5703 5701 5698 5696 5693 5690 5687 5683 5679 5675 5672 5672 5672 5671 5669 5665 5662 5660 5656 5654 5651 5651 5653 5653 5653 5653 5653 5652 5651 5648 5647 5645 5645 5647 5653 5653 5653 5654 5656 5663 5666 5667 5668